1360281634174,19.0564
1360281694174,19.0787
1360281754174,19.0954
1360281814174,19.0876
1360281874174,19.0364
1360281934174,19.0462
1360281994174,19.0556
1360282054174,19.0285
1360282114174,19.0134
1360282174174,19.0282
1360282234174,19.0422
1360282294174,19.0281
1360282354174,18.9837
1360282414174,19.0475
1360282474174,19.0094
1360282534174,19.0583
1360282594174,19.0162
1360282654174,19.0651
1360282714174,19.0164
1360282774174,19.0413
1360282834174,18.9507
1360282894174,19.0676
1360282954174,19.0477
1360283014174,18.9826
1360283074174,19.0069
1360283134174,19.0642
1360283194174,19.0382
1360283254174,19.0902
1360283314174,19.0903
1360283374174,19.1187
1360283434174,19.1109
1360283494174,19.0625
1360283554174,19.4127
1360283614174,19.0529
1360283674174,19.0757
1360283734174,19.0627
1360283794174,18.9920
1360283854174,19.0157
1360283914174,19.0069
1360283974174,19.0710
1360284034174,19.0413
1360284094174,19.0095
1360284154174,19.0554
1360284214174,18.9592
1360284274174,18.9657
1360284334174,18.9916
1360284394174,18.9597
1360284454174,18.9997
1360284514174,18.9766
1360284574174,18.9177
1360284634174,19.0061
1360284694174,18.9829
1360284754174,19.0538
1360284814174,19.1066
1360284874174,19.1091
1360284934174,19.1474
1360284994174,19.1864
1360285054174,19.1746
1360285114174,19.1624
1360285174174,19.0670
1360285234184,19.1205
1360285294184,19.1231
1360285354184,19.1301
1360285414184,19.1697
1360285474184,19.2300
1360285534184,19.2358
1360285594184,19.2271
1360285654184,19.2105
1360285714184,19.2857
1360285774184,19.2234
1360285834184,19.1672
1360285894184,19.1699
1360285954184,19.1767
1360286014184,19.2226
1360286074184,19.2672
1360286134184,19.2075
1360286194184,19.1799
1360286254184,19.1863
1360286314184,19.1871
1360286374184,19.1160
1360286434184,19.1679
1360286494184,19.1282
1360286554184,19.1090
1360286614184,19.1184
1360286674184,19.1027
1360286734184,19.0680
1360286794184,19.0755
1360286854184,19.0665
1360286914184,19.0428
1360286974184,19.0463
1360287034184,19.0777
1360287094184,19.0464
1360287154184,19.0267
1360287214184,19.0285
1360287274184,19.0994
1360287334184,19.0298
1360287394184,19.0598
1360287454184,19.0466
1360287514184,19.0761
1360287574184,19.0647
1360287634184,19.0182
1360287694184,19.0157
1360287754184,19.0910
1360287814184,19.0504
1360287874184,19.0565
1360287934184,19.0637
1360287994184,19.0033
1360288054184,19.0738
1360288114184,19.0170
1360288174184,19.0040
1360288234184,19.0138
1360288294184,19.0227
1360288354184,18.9556
1360288414184,19.0835
1360288474184,18.9973
1360288534184,19.0325
1360288594184,19.0581
1360288654184,18.9505
1360288714184,18.9860
1360288774184,18.9922
1360288834195,18.9314
1360288894195,18.9985
1360288954195,19.0491
1360289014195,19.0898
1360289074195,19.0746
1360289134195,19.0030
1360289194195,18.9896
1360289254195,19.0178
1360289314195,19.0180
1360289374195,18.9821
1360289434195,18.9885
1360289494195,19.0807
1360289554195,18.9716
1360289614195,19.0365
1360289674195,18.9896
1360289734195,18.9794
1360289794195,18.9881
1360289854195,19.0211
1360289914195,18.9330
1360289974195,18.9980
1360290034195,18.9937
1360290094195,19.0132
1360290154195,18.9218
1360290214195,18.9458
1360290274195,18.9452
1360290334195,19.0136
1360290394195,18.9931
1360290454195,19.0464
1360290514195,19.0298
1360290574195,19.0812
1360290634195,19.0050
1360290694195,18.9955
1360290754195,18.9268
1360290814195,18.9946
1360290874195,18.9347
1360290934195,18.9982
1360290994195,18.9856
1360291054195,18.9880
1360291114195,18.9815
1360291174195,18.9640
1360291234195,18.9698
1360291294195,18.9109
1360291354195,18.9914
1360291414195,18.9291
1360291474195,18.9553
1360291534195,18.9652
1360291594195,18.9944
1360291654195,18.9583
1360291714195,18.9840
1360291774195,18.9750
1360291834195,18.9836
1360291894195,18.9162
1360291954195,18.9759
1360292014195,18.9974
1360292074195,18.9341
1360292134195,18.9407
1360292194195,18.9086
1360292254195,18.9078
1360292314195,18.9111
1360292374195,18.9374
1360292434206,18.9428
1360292494206,18.9428
1360292554206,18.9753
1360292614206,18.9260
1360292674206,18.9139
1360292734206,18.9044
1360292794206,18.9671
1360292854206,18.9540
1360292914206,18.9659
1360292974206,18.9778
1360293034206,19.0499
1360293094206,19.0158
1360293154206,18.8948
1360293214206,19.0687
1360293274206,18.9102
1360293334206,18.9770
1360293394206,19.0281
1360293454206,18.9964
1360293514206,18.9876
1360293574206,18.9770
1360293634206,18.9505
1360293694206,18.9803
1360293754206,18.9891
1360293814206,18.9873
1360293874206,18.9678
1360293934206,18.9515
1360293994206,19.0029
1360294054206,18.9385
1360294114206,18.9533
1360294174206,18.9530
1360294234206,18.9490
1360294294206,18.9424
1360294354206,18.9149
1360294414206,18.9233
1360294474206,18.9191
1360294534206,18.9422
1360294594206,18.9067
1360294654206,18.9108
1360294714206,18.9303
1360294774206,18.8892
1360294834206,18.9092
1360294894206,18.9641
1360294954206,18.9328
1360295014206,18.9694
1360295074206,18.9808
1360295134206,18.9405
1360295194206,18.9812
1360295254206,18.9710
1360295314206,19.0160
1360295374206,18.9980
1360295434206,19.0084
1360295494206,18.9430
1360295554206,18.9434
1360295614206,18.9983
1360295674206,18.9327
1360295734206,18.9466
1360295794206,18.9714
1360295854206,18.9363
1360295914206,18.9352
1360295974206,18.9539
1360296034216,18.9455
1360296094216,18.9566
1360296154216,18.9593
1360296214216,18.9181
1360296274216,18.9563
1360296334217,18.9251
1360296394216,18.9696
1360296454216,19.0061
1360296514216,18.9612
1360296574216,18.9884
1360296634216,18.9865
1360296694216,19.0116
1360296754216,19.0315
1360296814216,19.0282
1360296874216,19.0178
1360296934216,19.0257
1360296994216,18.9874
1360297054216,18.9682
1360297114216,18.9466
1360297174216,18.9926
1360297234216,18.9358
1360297294216,18.9952
1360297354216,18.9315
1360297414216,18.9406
1360297474216,18.9630
1360297534216,18.9843
1360297594216,19.0275
1360297654216,18.9668
1360297714217,18.9812
1360297774216,18.9683
1360297834216,18.9451
1360297894216,18.9494
1360297954216,18.8686
1360298014216,18.8738
1360298074216,18.8965
1360298134216,18.9209
1360298194216,18.9426
1360298254216,18.8680
1360298314216,18.9527
1360298374216,18.8848
1360298434216,18.9439
1360298494216,18.9574
1360298554216,18.9579
1360298614216,18.9582
1360298674216,18.9310
1360298734216,18.9237
1360298794216,18.9610
1360298854216,18.9327
1360298914216,19.0327
1360298974216,18.9107
1360299034217,18.9314
1360299094216,18.8815
1360299154216,18.9276
1360299214216,18.9611
1360299274216,18.9818
1360299334216,18.9261
1360299394216,18.9409
1360299454216,18.9363
1360299514216,18.9420
1360299574216,18.9339
1360299634227,18.9235
1360299694227,18.9073
1360299754227,18.9493
1360299814227,19.0001
1360299874227,18.9129
1360299934227,18.9571
1360299994227,18.9884
1360300054227,18.9510
1360300114227,18.9621
1360300174227,19.0111
1360300234227,18.9242
1360300294227,18.9817
1360300354227,18.9484
1360300414227,18.9980
1360300474227,19.0153
1360300534227,18.9181
1360300594227,18.9988
1360300654227,18.9944
1360300714227,19.0302
1360300774227,19.0459
1360300834227,19.0376
1360300894227,18.9478
1360300954227,19.0055
1360301014227,18.9980
1360301074227,19.0278
1360301134227,19.0101
1360301194227,19.0065
1360301254227,18.9658
1360301314227,19.0344
1360301374227,18.9516
1360301434227,19.0146
1360301494227,18.9436
1360301554227,19.0044
1360301614227,18.9942
1360301674227,19.0057
1360301734227,19.0128
1360301794227,19.0256
1360301854227,18.9562
1360301914227,19.0696
1360301974227,18.9790
1360302034227,18.9384
1360302094227,19.0163
1360302154227,18.9854
1360302214227,18.9386
1360302274227,18.9428
1360302334227,18.9757
1360302394227,18.9555
1360302454227,18.9008
1360302514227,18.9036
1360302574227,18.9735
1360302634227,18.9569
1360302694227,18.9056
1360302754227,19.0142
1360302814227,19.0004
1360302874227,19.3207
1360302934227,19.0160
1360302994227,19.0157
1360303054227,18.9616
1360303114227,19.0120
1360303174227,18.9518
1360303234238,18.9396
1360303294238,19.0413
1360303354238,18.9838
1360303414238,19.0102
1360303474238,18.9735
1360303534238,19.0073
1360303594238,18.9483
1360303654238,18.9611
1360303714238,19.0019
1360303774239,18.9824
1360303834239,19.0165
1360303894239,19.0033
1360303954238,18.9489
1360304014238,18.9819
1360304074238,19.0049
1360304134238,18.9852
1360304194238,18.9907
1360304254238,18.9148
1360304314238,18.9520
1360304374238,18.9567
1360304434238,18.9745
1360304494238,19.0171
1360304554238,18.9741
1360304614238,18.9092
1360304674238,18.9290
1360304734238,18.9273
1360304794238,18.9276
1360304854238,18.9384
1360304914238,18.8780
1360304974238,18.9076
1360305034238,18.9311
1360305094238,18.9130
1360305154239,18.9711
1360305214239,18.9315
1360305274239,18.9959
1360305334238,18.9930
1360305394238,18.9698
1360305454238,18.9365
1360305514238,18.9706
1360305574238,18.9829
1360305634238,18.9980
1360305694238,18.9704
1360305754238,18.9480
1360305814238,18.9505
1360305874238,18.9843
1360305934238,18.9467
1360305994238,19.0028
1360306054238,18.9501
1360306114238,18.9263
1360306174238,18.9356
1360306234238,19.0002
1360306294238,18.9681
1360306354238,18.9616
1360306414238,18.9570
1360306474239,19.0159
1360306534239,18.9968
1360306594239,18.9743
1360306654238,18.9399
1360306714238,18.9469
1360306774238,19.0143
1360306834250,18.9376
1360306894250,18.9501
1360306954250,18.9821
1360307014250,19.0050
1360307074250,19.0165
1360307134250,19.0326
1360307194250,18.9350
1360307254250,19.0626
1360307314250,19.0041
1360307374250,18.9814
1360307434250,19.0251
1360307494250,18.9986
1360307554250,19.0379
1360307614250,19.0079
1360307674250,19.0489
1360307734250,18.9967
1360307794250,18.9353
1360307854250,19.0720
1360307914250,18.9546
1360307974250,18.9431
1360308034250,18.9249
1360308094250,18.9874
1360308154250,18.9710
1360308214250,18.9337
1360308274250,18.9672
1360308334250,18.9202
1360308394250,18.9813
1360308454250,19.0019
1360308514250,18.9239
1360308574250,18.8874
1360308634250,18.9628
1360308694250,18.9065
1360308754250,18.9498
1360308814250,19.0710
1360308874250,19.0500
1360308934250,19.0184
1360308994250,18.9392
1360309054250,19.0570
1360309114250,18.9927
1360309174250,19.0190
1360309234250,18.9949
1360309294250,18.9964
1360309354250,19.0294
1360309414250,18.9784
1360309474250,18.9986
1360309534250,18.9545
1360309594250,19.0051
1360309654250,18.9952
1360309714250,19.0358
1360309774250,19.0629
1360309834250,19.0511
1360309894250,19.0506
1360309954250,18.9793
1360310014250,19.0328
1360310074250,19.0880
1360310134250,19.0619
1360310194250,18.9914
1360310254250,19.0542
1360310314250,19.0262
1360310374250,19.0625
1360310434261,19.0504
1360310494261,19.0914
1360310554261,19.0245
1360310614261,19.0353
1360310674261,19.0926
1360310734261,19.0621
1360310794261,19.0709
1360310854261,19.1014
1360310914261,19.0640
1360310974261,19.0712
1360311034261,19.1287
1360311094261,19.0726
1360311154261,19.0265
1360311214261,19.0624
1360311274261,19.1078
1360311334261,19.0924
1360311394261,19.1065
1360311454261,19.0899
1360311514261,19.1085
1360311574261,19.0858
1360311634261,19.1409
1360311694261,19.0393
1360311754261,19.0845
1360311814261,19.1024
1360311874261,19.0892
1360311934261,19.0718
1360311994261,19.1255
1360312054261,19.0707
1360312114261,19.0809
1360312174261,19.0616
1360312234261,19.0727
1360312294261,19.0340
1360312354261,19.1336
1360312414261,19.0192
1360312474261,19.0187
1360312534261,18.9888
1360312594261,19.0926
1360312654261,19.0660
1360312714261,19.1114
1360312774261,19.1271
1360312834261,19.0572
1360312894261,19.1423
1360312954261,19.1151
1360313014261,19.1847
1360313074261,19.1208
1360313134261,19.1350
1360313194261,19.1166
1360313254261,19.1141
1360313314261,19.1510
1360313374261,19.1710
1360313434261,19.1567
1360313494261,19.1657
1360313554261,19.0642
1360313614261,19.1221
1360313674261,19.1376
1360313734261,19.1601
1360313794261,19.1495
1360313854261,19.1139
1360313914261,19.1471
1360313974261,19.1075
1360314034272,19.1778
1360314094272,19.0854
1360314154272,19.1320
1360314214272,19.0800
1360314274272,19.0817
1360314334272,19.1509
1360314394272,19.1284
1360314454272,19.0909
1360314514272,19.0958
1360314574272,19.1328
1360314634272,19.1779
1360314694272,18.9833
1360315234272,19.1544
1360315294272,19.0012
1360315354272,19.0605
1360315414272,19.1620
1360315474272,19.1373
1360315534272,19.1143
1360315594272,19.1519
1360315654272,19.1226
1360315714272,19.1187
1360315774272,19.1166
1360315834272,19.1087
1360315894272,19.1222
1360315954272,19.1038
1360316014272,19.1254
1360316074272,19.0846
1360316134272,19.0489
1360316194272,19.1380
1360316254272,19.1116
1360316314272,19.0932
1360316374272,19.1176
1360316434272,19.0468
1360316494272,19.1310
1360316554272,19.0883
1360316614272,19.0689
1360316674272,19.1526
1360316734272,19.0916
1360316794272,19.0974
1360316854272,19.0757
1360316914272,19.1862
1360316974272,19.1315
1360317034272,19.0557
1360317094272,19.1298
1360317154272,19.0049
1360317214272,19.0677
1360317274272,19.0524
1360317334272,19.0593
1360317394272,19.0378
1360317454272,19.0989
1360317514272,19.0338
1360317574272,19.0834
1360317634284,19.0812
1360317694284,18.9826
1360317754284,19.0444
1360317814284,19.0577
1360317874284,19.0874
1360317934284,19.0572
1360317994284,19.0069
1360318054284,19.0365
1360318114284,19.0095
1360318174284,18.9888
1360318234284,19.0166
1360318294284,18.9991
1360318354284,19.0916
1360318414284,19.0203
1360318474284,19.0692
1360318534284,19.0201
1360318594284,19.0275
1360318654284,19.0576
1360318714284,19.0466
1360318774284,19.0381
1360318834284,19.0787
1360318894284,19.0899
1360318954284,19.1037
1360319014284,19.0112
1360319074284,19.1684
1360319134284,19.0648
1360319194284,19.0302
1360319254284,19.1163
1360319314284,19.1183
1360319374284,19.0556
1360319434284,19.0426
1360319494284,19.0719
1360319554284,18.9782
1360319614284,19.0406
1360319674284,19.1024
1360319734284,18.9941
1360319794284,19.0815
1360319854284,19.1135
1360319914284,19.0726
1360319974284,19.1095
1360320034284,19.0487
1360320094284,19.1433
1360320154284,19.1296
1360320214284,19.0939
1360320274284,19.0940
1360320334284,19.0539
1360320394284,18.9957
1360320454284,19.0494
1360320514284,19.0538
1360320574284,19.0130
1360320634284,19.0677
1360320694284,19.0673
1360320754284,19.0394
1360320814284,19.0634
1360320874284,19.0460
1360320934284,19.0732
1360320994284,19.0944
1360321054284,19.0947
1360321114284,19.0352
1360321174284,19.0996
1360321234295,19.0510
1360321294295,19.0529
1360321354295,19.0863
1360321414295,19.0690
1360321474295,19.0617
1360321534295,19.0298
1360321594295,19.0496
1360321654295,19.0510
1360321714295,19.0561
1360321774295,19.0321
1360321834295,19.0478
1360321894295,19.0823
1360321954295,19.0913
1360322014295,19.0651
1360322074295,19.0477
1360322134295,19.0988
1360322194295,19.0481
1360322254295,19.0450
1360322314295,18.9753
1360322374295,19.0474
1360322434295,19.0794
1360322494295,19.0480
1360322554295,19.0648
1360322614295,19.0668
1360322674295,19.0628
1360322734295,19.1057
1360322794295,19.0737
1360322854295,19.1026
1360322914295,19.1035
1360322974295,19.0848
1360323034295,19.1356
1360323094295,19.1017
1360323154295,19.1443
1360323214295,19.0447
1360323274295,19.0885
1360323334295,19.1152
1360323394295,19.0956
1360323454295,19.1117
1360323514295,19.1260
1360323574295,19.1318
1360323634295,19.1804
1360323694295,19.1145
1360323754295,19.1367
1360323814295,19.1068
1360323874295,19.1117
1360323934295,19.0967
1360323994295,19.1091
1360324054295,19.0570
1360324114295,19.0051
1360324174295,19.0598
1360324234295,19.0593
1360324294295,19.0702
1360324354295,19.0652
1360324414295,19.0375
1360324474295,19.0361
1360324534295,19.0230
1360324594295,19.0425
1360324654295,19.1001
1360324714295,19.1135
1360324774295,19.1261
1360324834306,19.1186
1360324894306,19.0944
1360324954306,19.0939
1360325014306,19.0897
1360325074306,19.0614
1360325134306,19.1148
1360325194306,19.1064
1360325254306,19.0658
1360325314306,19.0586
1360325374306,19.1172
1360325434306,19.1141
1360325494306,19.0816
1360325554306,19.0879
1360325614306,19.0718
1360325674306,19.1179
1360325734306,19.0900
1360325794306,19.1068
1360325854306,19.0579
1360325914306,19.1134
1360325974306,19.1415
1360326034306,19.1080
1360326094306,19.1354
1360326154306,19.1208
1360326214306,19.0596
1360326274306,19.0273
1360326334306,19.0624
1360326394306,19.0902
1360326454306,19.0942
1360326514306,19.0355
1360326574306,19.0787
1360326634306,19.0858
1360326694306,19.1124
1360326754306,19.0810
1360326814306,19.0848
1360326874306,19.0936
1360326934306,19.0639
1360326994306,19.0835
1360327054306,19.0824
1360327114306,19.0369
1360327174306,19.0533
1360327234306,18.9761
1360327294306,19.0738
1360327354306,19.0872
1360327414306,19.0514
1360327474306,19.0570
1360327534306,19.0018
1360327594306,19.0876
1360327654306,19.0897
1360327714306,19.0469
1360327774306,19.1215
1360327834306,19.0248
1360327894306,19.0357
1360327954306,19.0291
1360328014306,19.0686
1360328074306,19.0018
1360328134306,19.0310
1360328194306,19.0667
1360328254306,19.1039
1360328314306,19.0962
1360328374306,19.0542
1360328434318,19.1148
1360328494318,19.1090
1360328554318,19.0570
1360328614318,19.1468
1360328674318,19.1377
1360328734318,19.0120
1360328794318,19.1028
1360328854318,19.0435
1360328914318,19.1434
1360328974318,19.0012
1360329034318,19.0438
1360329094318,19.0713
1360329154318,19.0419
1360329214318,19.0072
1360329274318,19.0831
1360329334318,19.0579
1360329394318,19.0522
1360329454318,19.1132
1360329514318,19.0385
1360329574318,19.0638
1360329634318,19.0419
1360329694318,19.0912
1360329754318,19.0717
1360329814318,19.0043
1360329874318,19.0529
1360329934318,19.0878
1360329994318,19.0360
1360330054318,19.0493
1360330114318,19.0666
1360330174318,19.0299
1360330234318,19.1376
1360330294318,19.0708
1360330354318,19.0543
1360330414318,19.0565
1360330474318,19.0746
1360330534318,19.0442
1360330594318,19.0391
1360330654318,19.0996
1360330714318,19.0969
1360330774318,19.0749
1360330834318,19.0929
1360330894318,19.0538
1360330954318,19.0630
1360331014318,19.0153
1360331074318,19.0514
1360331134318,19.0938
1360331194318,19.0392
1360331254318,19.0318
1360331314318,19.0534
1360331374318,19.0556
1360331434318,19.0479
1360331494318,19.0857
1360331554318,19.1639
1360331614318,19.0710
1360331674318,19.1023
1360331734318,19.1150
1360331794318,19.0535
1360331854318,19.0644
1360331914318,19.0193
1360331974318,19.0552
1360332034329,19.0313
1360332094329,19.0471
1360332154329,19.0358
1360332214329,19.0487
1360332274329,19.0667
1360332334329,19.0504
1360332394329,19.0470
1360332454329,19.0220
1360332514329,19.0931
1360332574329,19.0497
1360332634329,19.0386
1360332694329,19.0554
1360332754329,19.1090
1360332814329,19.0212
1360332874329,19.0797
1360332934329,19.1038
1360332994329,19.0510
1360333054329,19.0606
1360333114329,19.0926
1360333174329,19.0777
1360333234329,19.1123
1360333294329,19.0303
1360333354329,19.0273
1360333414329,19.0943
1360333474329,19.2319
1360333534329,19.1931
1360333594329,19.2408
1360333654329,19.1378
1360333714329,19.1275
1360333774329,19.1214
1360333834329,19.1956
1360333894329,19.1931
1360333954329,19.1758
1360334014329,19.1550
1360334074329,19.1588
1360334134329,19.1373
1360334194329,19.1928
1360334254329,19.1829
1360334314329,19.1851
1360334374329,19.1515
1360334434329,19.2048
1360334494329,19.1382
1360334554329,19.1770
1360334614329,19.1259
1360334674329,19.1837
1360334734329,19.1285
1360334794329,19.1099
1360334854329,19.1692
1360334914329,19.1690
1360334974329,19.1865
1360335034329,19.2127
1360335094329,19.2105
1360335154329,19.1602
1360335214329,19.2124
1360335274329,19.1791
1360335334329,19.1955
1360335394329,19.2135
1360335454329,19.1937
1360335514329,19.1498
1360335574329,19.1282
1360335634340,19.1875
1360335694340,19.1984
1360335754340,19.1593
1360335814340,19.2327
1360335874340,19.2442
1360335934340,19.1890
1360335994340,19.1928
1360336054340,19.1759
1360336114340,19.2147
1360336174340,19.2631
1360336234340,19.1401
1360336294340,19.1293
1360336354340,19.1747
1360336414340,19.1616
1360336474340,19.1478
1360336534340,19.1351
1360336594340,19.1644
1360336654340,19.1605
1360336714340,19.0793
1360336774340,19.1381
1360336834340,19.1048
1360336894340,19.1378
1360336954340,19.0873
1360337014340,19.1101
1360337074340,19.1180
1360337134340,19.1169
1360337194340,19.1014
1360337254340,19.1018
1360337314340,19.1203
1360337374340,19.1224
1360337434340,19.1693
1360337494340,19.1495
1360337554340,19.1103
1360337614340,19.1264
1360337674340,19.0976
1360337734340,19.1521
1360337794340,19.1372
1360337854340,19.1827
1360337914340,19.1549
1360337974340,19.1768
1360338034340,19.1640
1360338094340,19.1436
1360338154340,19.1304
1360338214340,19.1476
1360338274340,19.1718
1360338334340,19.2203
1360338394340,19.2078
1360338454340,19.2675
1360338514340,19.2023
1360338574340,19.2259
1360338634340,19.2356
1360338694340,19.2424
1360338754340,19.1857
1360338814340,19.1450
1360338874340,19.1874
1360338934340,19.2610
1360338994340,19.1798
1360339054340,19.2070
1360339114340,19.1400
1360339174340,19.1423
1360339234351,19.1966
1360339294351,19.2303
1360339354351,19.1912
1360339414351,19.1320
1360339474351,19.2238
1360339534351,19.1467
1360339594351,19.1626
1360339654351,19.1339
1360339714351,19.1208
1360339774351,19.0991
1360339834351,19.1834
1360339894351,19.1230
1360339954351,19.0611
1360340014351,19.1141
1360340074351,19.1371
1360340134351,19.1370
1360340194351,19.1051
1360340254351,19.1297
1360340314351,19.1122
1360340374351,19.1666
1360340434351,19.2305
1360340494351,19.2118
1360340554351,19.2608
1360340614351,19.1858
1360340674351,19.1981
1360340734351,19.1757
1360340794351,19.1411
1360340854351,19.1845
1360340914351,19.1416
1360340974351,19.1705
1360341034351,19.1465
1360341094351,19.2745
1360341154351,19.2005
1360341214351,19.1993
1360341274351,19.1633
1360341334351,19.2159
1360341394351,19.2104
1360341454351,19.1600
1360341514351,19.1965
1360341574351,19.2193
1360341634351,19.1390
1360341694351,19.1430
1360341754351,19.1218
1360341814351,19.1614
1360341874351,19.0999
1360341934351,19.1031
1360341994351,19.1288
1360342054351,19.1706
1360342114351,19.1123
1360342174351,19.0906
1360342234351,19.0970
1360342294351,19.1633
1360342354351,19.1967
1360342414351,19.1705
1360342474351,19.2136
1360342534351,19.1967
1360342594351,19.1905
1360342654351,19.2550
1360342714351,19.2183
1360342774351,19.1694
1360342834362,19.1687
1360342894362,19.1808
1360342954362,19.1807
1360343014362,19.1358
1360343074362,19.1808
1360343134362,19.1446
1360343194362,19.2065
1360343254362,19.2101
1360343314362,19.1820
1360343374362,19.1236
1360343434362,19.1636
1360343494362,19.1636
1360343554362,19.1872
1360343614362,19.1147
1360343674362,19.1227
1360343734362,19.1357
1360343794362,19.2172
1360343854362,19.1607
1360343914362,19.1802
1360343974362,19.1577
1360344034362,19.2073
1360344094362,19.1894
1360344154362,19.1310
1360344214362,19.1592
1360344274362,19.1595
1360344334362,19.2024
1360344394362,19.1815
1360344454362,19.2193
1360344514362,19.2630
1360344574362,19.1398
1360344634362,19.0879
1360344694362,19.2156
1360344754362,19.0929
1360344814362,19.1976
1360344874362,19.3040
1360344934362,19.2327
1360344994362,19.3285
1360345054362,19.2934
1360345114362,19.3310
1360345174362,19.2544
1360345234362,19.2665
1360345294362,19.4200
1360345354362,19.2994
1360345414362,19.3084
1360345474362,19.3106
1360345534362,19.2759
1360345594362,19.2530
1360345654362,19.1908
1360345714362,19.2163
1360345774362,19.1782
1360345834362,19.2043
1360345894362,19.1878
1360345954362,19.1776
1360346014362,19.1886
1360346074362,19.1692
1360346134362,19.1708
1360346194362,19.1421
1360346254362,19.2183
1360346314362,19.1975
1360346374362,19.2082
1360346434373,19.1543
1360346494373,19.2039
1360346554373,19.1470
1360346614373,19.2562
1360346674373,19.2246
1360346734373,19.1632
1360346794373,19.2250
1360346854373,19.1440
1360346914373,19.1685
1360346974373,19.2152
1360347034373,19.2092
1360347094373,19.2296
1360347154373,19.2333
1360347214373,19.1963
1360347274373,19.1695
1360347334373,19.2007
1360347394373,19.2343
1360347454373,19.2170